Wind_Speed
13 13 13 14 14 14 15 15 15 14 14 13 14 14 15 15 15 14 14 14 15 15 15 15 14 15 15 15 14 14 14 14 15 15 15 15 16 16 17 18 19 19 19 19 19 18 18 19 19 18 18 18 17 17 19 20 20 19 20 21 21 20 20
14 14 14 15 14 15 15 15 15 15 14 14 14 14 15 16 17 17 17 17 18 18 17 17 16 16 16 16 15 14 14 14 14 15 15 15 16 17 17 17 18 18 18 19 18 18 19 20 20 20 19 18 17 18 20 22 22 22 22 23 23 22 22
15 15 15 15 15 16 16 16 16 15 15 15 15 16 16 17 17 18 18 18 18 18 17 17 17 17 16 16 16 15 14 14 14 14 14 14 15 16 17 17 17 17 17 17 18 19 20 19 19 19 18 17 18 20 22 23 24 24 24 24 24 24 23
16 15 15 15 16 17 17 17 17 17 17 17 17 17 18 19 19 19 19 19 18 17 16 16 16 16 16 15 15 15 14 14 14 14 13 13 13 15 16 16 16 17 17 17 18 18 19 19 18 19 19 20 22 22 23 24 25 25 25 25 25 25 24
16 15 15 16 17 18 19 19 19 19 19 18 17 17 18 18 19 19 19 19 19 17 15 15 14 14 14 14 14 13 13 13 13 13 13 13 13 14 15 16 16 17 17 17 18 18 18 19 19 20 21 22 22 23 24 25 25 26 26 26 25 25 25
15 15 16 17 18 19 20 21 21 21 21 19 17 16 15 15 16 16 17 18 18 16 15 14 14 14 13 13 12 12 12 12 11 11 12 12 13 13 14 15 15 16 17 17 18 19 19 19 19 20 21 22 22 23 24 24 25 25 26 26 26 26 25
15 16 18 19 19 20 22 22 21 21 20 19 17 15 14 15 16 16 16 16 16 15 14 14 14 13 13 13 12 11 11 11 11 11 11 11 12 13 14 14 15 15 16 17 17 19 19 19 19 20 20 21 21 22 23 24 24 24 24 24 25 25 25
18 19 21 22 21 21 19 17 15 16 18 18 17 17 17 17 17 16 15 15 15 15 14 14 14 14 13 13 12 12 11 11 11 11 11 11 12 12 13 14 14 15 16 16 17 18 19 19 19 19 19 19 20 21 22 22 22 23 23 23 23 23 23
19 21 23 24 22 18 15 12 12 14 16 17 16 18 18 18 16 15 14 14 14 14 14 14 14 14 14 14 13 13 12 12 12 12 11 12 12 12 13 13 14 15 15 16 17 17 18 18 18 18 18 18 19 19 20 21 21 21 21 21 22 22 22
22 22 23 23 19 15 12 12 13 14 16 17 17 17 17 15 14 14 13 13 13 14 15 16 16 16 16 16 15 15 14 14 14 13 13 13 13 13 13 14 14 15 15 16 17 17 17 17 17 18 18 18 18 18 19 19 20 20 20 20 20 20 20
23 21 20 17 14 12 12 13 14 14 16 18 17 16 15 14 14 14 14 13 14 15 16 17 18 18 18 18 18 17 16 15 15 15 15 14 14 14 14 14 14 15 15 15 16 17 17 17 17 18 17 17 18 18 18 19 19 19 19 19 19 19 20
20 19 18 15 13 12 13 13 14 16 17 16 15 14 13 12 13 14 14 14 15 16 17 18 19 19 19 19 19 18 18 17 16 16 16 16 16 16 15 15 15 14 15 15 16 16 17 17 17 17 17 18 18 18 18 19 19 19 19 19 19 19 19
19 19 19 16 14 14 14 15 16 17 16 15 14 13 12 11 11 12 13 15 16 17 18 19 19 19 20 19 19 19 18 18 17 17 16 16 16 16 16 16 16 16 15 15 15 16 17 17 17 18 18 18 18 19 19 19 19 19 19 19 20 19 20
20 21 20 17 16 16 17 18 18 17 16 14 13 12 12 11 11 11 13 14 16 17 18 18 19 19 19 19 19 18 18 18 18 18 18 17 17 17 17 17 17 17 17 16 15 15 15 16 17 18 18 18 19 19 19 19 19 19 19 20 20 20 20
21 21 21 19 18 19 19 19 19 17 15 14 13 13 13 13 13 13 13 14 15 16 17 18 19 20 20 20 20 20 20 20 20 20 19 19 18 18 18 17 17 17 17 17 16 15 15 15 16 17 17 18 18 18 18 18 18 19 19 19 20 21 21
22 21 20 19 19 20 20 20 19 17 16 16 15 15 15 15 14 14 14 14 15 16 17 18 20 21 21 21 22 22 22 22 22 21 21 20 19 19 19 19 18 17 17 17 17 17 17 16 16 16 17 18 18 18 19 19 19 19 19 20 20 20 21
22 20 19 19 19 20 20 20 19 18 18 17 17 17 17 16 16 16 15 15 15 16 17 18 19 21 21 21 21 21 21 22 22 22 22 22 21 21 21 20 20 19 18 18 19 19 19 19 18 18 18 18 19 19 19 20 20 20 21 21 21 22 22
20 19 19 19 19 19 20 20 20 20 19 19 19 19 19 19 18 18 17 16 16 16 16 16 18 19 21 21 21 22 23 24 24 23 24 24 24 24 24 23 23 22 21 21 21 22 22 22 21 21 20 20 20 21 21 22 22 23 23 23 23 24 24
20 20 20 20 19 20 20 21 21 21 21 21 21 21 21 21 21 20 19 19 18 17 16 17 18 19 21 22 24 25 26 26 26 25 25 25 25 26 26 26 25 24 24 23 23 23 23 22 22 22 22 22 21 22 22 23 23 24 24 25 25 26 26
22 22 22 22 22 22 22 21 21 21 22 22 22 23 23 23 23 23 23 22 22 21 20 20 21 22 23 25 26 27 28 28 28 27 27 27 28 28 28 28 28 28 27 26 25 24 23 22 22 22 23 23 22 22 23 23 23 23 25 26 27 28 28
24 24 24 24 24 24 24 23 22 23 24 24 25 26 26 26 26 26 27 27 27 27 26 26 27 27 27 27 27 27 29 30 30 30 29 29 29 30 31 31 31 30 30 29 28 26 25 24 24 23 24 25 26 26 27 28 28 29 30 32 33 33 32
23 23 23 23 24 25 25 25 25 26 27 28 29 29 29 30 30 30 30 31 31 31 31 32 32 31 31 31 29 29 30 31 33 33 33 33 33 33 33 33 33 32 32 31 29 28 27 26 26 27 28 29 31 32 32 34 35 36 37 38 38 38 37
23 23 23 24 25 26 27 28 28 28 29 30 32 34 33 32 31 31 32 32 33 34 35 37 36 35 35 34 33 32 32 33 35 35 36 36 35 33 33 33 34 34 33 33 32 31 31 32 32 33 34 34 35 36 37 38 39 40 41 42 42 42 41
27 27 27 28 29 30 31 31 31 31 32 34 36 36 33 30 30 31 32 32 32 33 35 36 36 35 35 36 36 36 35 36 38 38 39 39 38 36 36 35 35 36 37 36 36 36 36 36 37 38 38 38 38 38 39 40 41 42 43 44 44 45 45
32 32 32 33 33 33 34 35 35 35 36 38 38 36 34 34 35 36 36 36 35 34 34 36 36 37 37 38 39 39 38 38 38 36 35 35 36 37 37 36 36 38 39 38 38 39 39 40 41 41 41 41 39 38 38 40 41 42 43 44 45 45 46
35 36 36 36 36 36 37 37 37 38 39 40 40 40 41 42 43 42 42 41 40 39 39 40 40 40 40 40 40 41 41 40 40 39 34 32 33 36 37 37 37 38 39 39 40 41 42 43 43 42 40 40 39 39 39 40 41 42 43 43 44 44 44
38 38 39 39 39 40 40 40 40 41 42 43 44 45 46 46 46 46 45 43 41 40 39 39 40 40 40 41 43 45 44 42 42 42 38 36 37 39 39 39 39 40 41 41 42 42 43 43 43 41 40 39 39 39 40 41 42 43 43 43 43 44 44
41 41 42 42 42 43 43 43 44 44 45 46 48 49 49 49 47 46 44 43 41 39 38 38 38 40 42 44 45 46 45 43 43 43 42 43 45 46 45 44 44 45 45 45 45 44 43 42 42 41 40 39 39 40 41 42 43 44 44 44 44 44 44
44 44 45 45 45 45 45 45 44 44 44 45 47 48 48 47 46 44 43 43 42 40 39 39 39 40 42 44 45 45 43 42 45 47 47 48 49 50 49 48 48 49 49 49 48 47 44 43 42 41 41 41 41 42 42 43 44 44 45 46 46 47 47
46 46 47 47 47 47 46 45 44 43 42 42 43 43 43 43 43 44 45 45 44 42 42 42 41 41 42 42 41 42 42 43 46 49 50 49 49 49 48 49 49 50 50 50 48 46 45 43 43 43 43 43 44 44 44 44 45 46 46 47 48 48 49
49 49 49 49 49 49 47 46 46 46 45 45 44 44 44 44 45 46 47 47 46 46 45 45 43 42 43 43 41 38 38 40 43 46 47 48 48 48 49 50 50 49 48 47 46 44 43 43 44 45 46 46 47 47 47 47 48 48 47 47 47 47 48
53 53 52 52 52 51 50 50 50 49 49 50 50 50 51 51 50 50 50 50 49 49 48 48 47 45 45 47 48 45 43 44 45 47 48 49 50 51 52 51 49 47 45 44 43 42 43 44 46 48 50 50 51 51 50 49 49 48 46 46 47 47 47
57 57 56 55 55 54 53 53 53 52 52 53 53 54 55 55 53 52 52 52 52 51 52 52 51 49 47 48 51 54 55 55 54 54 53 53 52 51 50 48 47 45 44 43 43 44 46 48 49 51 53 53 53 53 52 49 47 46 46 47 47 47 47
60 60 59 59 58 57 57 57 57 57 56 56 56 57 58 58 57 55 54 54 54 54 55 56 57 55 52 51 52 55 57 58 57 55 54 54 53 51 48 46 46 45 44 45 46 48 50 51 52 54 54 53 53 52 50 47 45 45 47 49 49 48 48
62 62 62 62 62 62 61 62 61 61 60 59 59 59 59 59 59 59 59 59 60 60 60 61 61 59 56 54 54 56 58 58 56 53 53 54 56 53 49 48 48 47 47 48 50 52 53 55 56 56 54 53 51 49 47 45 45 46 49 50 49 49 49
65 65 65 65 65 65 65 64 64 64 64 63 62 61 60 60 60 60 60 60 60 60 60 60 60 59 58 57 57 58 59 58 56 53 52 53 54 52 50 50 51 51 52 53 54 55 57 57 58 56 53 50 49 47 46 46 47 48 50 51 50 50 50
68 68 68 67 67 67 66 66 66 66 65 65 64 62 61 58 56 57 57 57 57 58 57 57 57 56 56 57 58 59 61 60 60 58 57 57 57 55 55 56 56 56 56 57 56 57 57 58 57 53 50 48 47 47 47 48 49 51 53 53 52 51 51
Wind_Direction
247 251 255 258 261 265 269 274 277 280 284 287 291 291 289 286 282 277 272 273 282 291 297 297 290 281 273 268 267 268 271 273 277 283 285 288 289 286 284 283 282 283 284 283 281 278 279 281 279 277 273 264 260 265 268 271 272 272 271 270 271 273 273
251 252 256 262 267 270 273 278 282 285 288 290 293 294 293 291 288 284 281 280 284 289 293 296 295 288 279 271 267 266 268 269 273 277 281 287 288 287 287 285 284 285 283 282 281 279 279 277 275 275 268 258 262 268 267 268 271 271 271 272 274 274 274
250 253 259 266 271 274 277 282 286 290 293 294 295 296 296 295 293 292 290 289 288 289 290 292 293 290 282 275 269 266 266 266 269 272 276 283 286 289 288 287 288 286 284 285 280 277 277 272 271 272 265 263 272 274 270 270 270 271 273 275 277 277 277
250 255 262 268 272 276 280 284 289 292 294 296 297 296 296 294 293 292 292 293 293 292 290 288 287 285 281 277 272 269 268 267 268 270 274 278 284 290 290 290 292 289 289 287 277 274 276 272 273 273 270 274 278 274 272 272 272 274 275 276 279 280 281
255 260 266 270 274 279 283 286 290 293 294 297 298 298 297 295 293 289 288 289 291 293 292 287 284 280 277 276 274 272 271 270 271 272 275 278 281 287 289 291 292 291 291 287 280 280 278 273 274 276 274 276 275 273 274 274 275 276 278 278 279 280 281
259 265 269 273 277 280 285 288 290 291 293 295 298 298 298 299 298 294 290 288 288 290 291 290 285 279 275 274 274 275 274 274 275 276 278 280 282 285 287 289 290 290 289 288 286 284 279 275 274 274 275 276 275 274 274 275 276 276 277 279 280 281 282
262 269 272 274 276 281 286 289 290 292 292 291 291 290 292 297 297 295 292 290 288 288 290 291 288 283 278 274 273 275 276 278 278 279 281 282 284 286 287 288 288 287 286 284 283 280 280 279 277 275 275 276 275 275 275 276 277 277 278 279 280 281 282
266 271 272 271 273 280 286 288 291 295 292 287 284 284 287 292 292 289 287 286 287 287 289 290 288 286 282 277 275 274 275 278 280 283 285 287 288 288 288 288 286 285 283 280 278 277 277 278 277 277 275 274 274 274 275 277 277 278 279 279 280 281 281
273 273 270 268 269 274 277 282 290 293 291 289 286 284 287 288 285 283 283 282 283 286 288 290 290 289 286 282 280 277 276 277 279 282 285 287 289 290 290 289 287 285 283 281 279 277 277 278 277 277 276 276 276 275 276 277 278 278 278 279 280 281 281
275 272 267 263 260 259 264 277 286 288 290 292 289 286 288 286 279 279 280 279 280 284 287 291 293 292 290 286 283 280 279 279 280 282 284 285 288 289 290 290 289 288 286 284 282 279 278 278 277 277 278 278 278 277 278 278 278 278 278 279 279 280 281
267 263 256 249 243 250 266 276 280 282 286 289 289 288 286 283 277 275 273 273 277 282 285 288 290 291 289 286 283 281 280 281 283 285 287 288 288 287 287 287 287 286 285 284 282 281 279 278 277 278 278 279 278 279 279 278 278 278 279 279 279 280 281
252 243 233 227 232 250 264 267 270 274 277 282 286 286 285 282 276 271 269 272 276 279 281 284 286 285 285 283 281 279 278 280 281 283 285 286 286 286 284 282 282 281 281 281 281 279 279 278 276 276 275 276 275 276 276 277 277 278 279 279 280 281 281
235 225 222 229 239 249 254 255 259 263 266 273 278 281 285 284 277 269 268 271 275 277 279 280 281 281 281 279 277 275 275 275 276 278 280 281 282 283 282 281 280 277 275 275 277 277 277 276 274 273 272 272 272 272 273 274 276 277 278 279 279 280 279
228 222 229 240 245 245 246 247 250 253 258 263 268 272 276 277 275 271 268 270 273 276 277 277 277 278 278 277 276 274 274 275 276 276 276 276 276 276 276 277 277 276 273 270 269 270 272 272 272 271 271 271 271 272 273 274 276 276 277 278 279 280 280
227 229 235 240 241 241 242 245 248 249 251 254 258 263 266 268 270 269 268 269 271 273 275 276 275 275 275 275 275 276 277 277 277 277 275 273 272 271 270 270 270 271 272 271 269 267 266 268 269 270 270 271 272 273 274 275 275 276 276 277 278 279 280
231 233 235 235 238 241 244 247 249 250 250 253 255 258 260 262 264 266 267 269 270 272 274 275 276 275 274 273 274 276 277 278 277 276 275 272 270 269 269 268 267 267 269 272 273 272 270 268 268 270 273 274 275 276 276 276 276 276 276 276 277 278 279
231 233 234 237 239 243 247 249 250 251 252 254 256 257 258 259 260 263 265 267 270 272 272 274 276 276 275 274 273 275 277 278 277 275 272 270 268 267 267 267 266 267 269 272 273 273 272 271 270 272 274 277 279 281 281 281 280 279 279 279 279 279 280
233 236 239 241 243 246 249 251 251 252 253 255 256 257 258 259 261 265 267 268 269 270 270 271 272 273 273 273 274 277 279 279 277 274 270 268 267 266 265 264 264 266 270 271 272 272 272 273 274 274 275 277 278 279 280 281 281 280 279 279 279 279 279
237 241 242 244 245 247 249 251 253 254 256 257 257 257 257 260 264 267 270 271 270 269 268 266 266 268 270 272 276 279 279 277 275 273 270 267 266 265 265 262 261 265 269 270 270 270 270 272 272 273 274 275 276 277 280 280 278 277 276 276 276 277 277
237 240 243 244 244 245 247 248 250 253 256 258 259 259 260 262 266 270 273 274 273 273 271 269 269 270 272 275 277 278 278 277 276 275 272 268 266 264 264 263 261 264 269 269 267 265 265 266 268 269 271 273 275 279 282 282 279 278 279 279 279 278 277
239 242 244 245 245 246 246 246 249 253 257 260 262 263 264 265 268 271 274 275 276 276 276 276 275 275 275 276 277 278 278 279 280 279 275 272 269 265 263 263 263 265 267 267 264 261 261 263 266 268 271 273 275 278 279 280 281 281 282 283 283 282 280
244 246 247 249 250 249 250 252 255 258 261 264 266 268 269 267 266 269 273 276 278 279 280 279 278 277 276 276 277 277 277 278 279 279 278 276 272 267 263 263 263 264 264 263 259 256 257 259 263 266 270 275 277 277 276 277 278 278 279 280 280 280 280
252 253 253 254 254 254 256 257 258 261 265 268 271 272 269 264 265 270 273 276 278 279 280 279 277 276 275 276 277 276 276 276 275 275 276 275 270 264 262 262 262 262 261 261 259 257 258 261 265 269 273 276 276 275 275 275 275 275 276 276 277 278 278
255 256 256 256 256 258 260 261 263 265 268 269 271 270 266 265 271 276 277 277 279 279 278 276 275 275 275 275 275 275 275 275 273 273 272 269 264 260 259 260 260 260 261 262 263 263 265 268 272 276 278 279 277 276 275 275 275 275 275 275 276 277 277
256 256 256 256 257 258 260 262 264 266 267 268 270 269 269 274 278 279 278 278 277 275 273 274 276 278 277 276 275 273 273 272 270 270 268 262 258 257 257 258 260 262 264 266 268 270 272 275 278 280 281 281 280 279 278 277 277 276 276 276 276 276 277
259 259 260 260 260 261 262 263 265 266 268 270 271 271 273 277 278 278 277 276 275 273 272 275 277 278 278 278 276 275 274 270 266 266 263 257 256 258 260 261 263 266 268 270 273 276 279 281 282 282 281 281 281 281 280 278 277 276 276 276 277 278 279
264 265 265 265 265 265 266 266 267 268 269 271 272 272 273 274 275 276 274 273 272 272 272 275 277 278 280 279 277 276 274 269 264 261 256 251 256 264 267 267 268 269 272 275 277 280 281 281 281 281 280 279 278 278 278 277 276 276 276 276 277 279 280
269 269 269 269 269 269 268 269 269 269 270 270 270 270 270 270 270 270 269 270 271 271 273 275 277 279 280 278 276 274 272 265 259 256 253 253 260 268 272 272 272 274 277 280 282 282 281 279 278 278 278 277 276 275 275 275 276 276 276 277 277 279 281
271 272 272 272 273 272 272 272 272 271 270 269 268 267 267 266 266 265 264 267 270 272 274 275 276 279 279 276 273 271 267 261 255 255 257 260 264 269 272 273 275 277 280 282 283 282 280 278 278 277 277 277 277 276 276 276 277 277 278 278 279 280 281
272 273 274 274 274 275 275 275 274 272 271 270 268 266 264 263 262 262 264 266 269 271 273 273 275 278 278 275 273 270 265 259 254 255 259 262 264 268 271 274 276 278 280 281 280 280 280 279 279 278 278 278 279 280 280 280 280 280 281 281 281 281 281
274 275 275 275 275 275 275 274 272 271 271 270 269 267 266 265 265 266 266 266 267 270 271 271 273 275 272 270 269 266 260 256 254 255 257 260 264 268 272 275 277 278 278 278 278 278 278 279 280 280 280 281 281 281 282 282 282 282 282 283 283 283 283
276 276 277 277 277 277 276 274 273 272 271 270 269 269 269 268 269 268 267 266 266 268 269 269 272 274 271 267 266 264 259 257 258 260 261 263 266 269 272 274 275 275 274 274 274 275 277 280 281 282 282 282 282 282 281 281 281 281 282 285 286 286 285
277 277 277 277 277 277 276 275 274 272 271 269 268 268 268 269 269 268 266 266 266 267 268 270 273 274 271 268 267 266 264 264 265 266 267 268 269 269 270 271 271 271 271 270 271 275 278 281 282 283 283 282 282 282 281 279 278 278 283 288 289 287 287
277 277 277 277 277 276 276 275 274 273 271 270 268 267 267 267 267 266 264 264 264 264 266 269 271 271 269 266 265 266 266 266 267 268 269 269 269 268 269 269 269 269 268 270 273 277 280 283 283 283 282 282 281 280 279 278 277 279 286 291 290 289 288
276 276 276 276 276 275 275 274 274 273 272 271 270 269 268 268 267 266 265 264 264 265 266 268 269 269 267 264 262 263 263 263 264 265 266 266 265 265 266 267 268 268 269 272 275 278 281 282 283 282 280 279 278 277 277 277 278 283 290 293 291 290 290
274 274 274 274 275 274 274 274 273 273 272 272 271 271 270 270 269 268 267 266 266 266 266 267 267 266 265 263 261 260 260 260 260 262 264 264 264 264 265 266 268 269 271 273 275 277 279 280 279 279 277 275 275 275 276 279 280 285 292 294 292 291 291
273 273 273 273 273 273 273 273 272 272 272 271 271 271 271 271 270 269 268 267 267 268 267 266 265 264 263 262 260 259 258 259 259 260 262 264 266 267 266 266 268 269 270 271 273 274 275 275 275 275 273 272 273 274 277 280 282 286 292 295 294 292 292
Height
5773 5773 5774 5774 5774 5773 5773 5773 5773 5774 5774 5775 5775 5775 5776 5776 5776 5777 5778 5778 5778 5778 5778 5778 5778 5779 5778 5778 5778 5778 5778 5779 5778 5778 5779 5779 5780 5781 5781 5781 5781 5781 5781 5782 5783 5782 5783 5783 5784 5784 5785 5785 5784 5783 5783 5782 5781 5782 5782 5780 5780 5781 5781
5771 5771 5772 5772 5772 5772 5771 5772 5772 5772 5773 5773 5774 5774 5774 5775 5775 5775 5776 5776 5776 5776 5777 5776 5776 5777 5777 5777 5777 5777 5777 5777 5777 5777 5777 5778 5778 5779 5779 5780 5780 5780 5780 5780 5780 5780 5780 5781 5781 5781 5782 5782 5783 5782 5782 5781 5780 5780 5780 5779 5778 5778 5779
5769 5770 5770 5770 5770 5770 5770 5771 5771 5771 5772 5772 5773 5773 5773 5773 5773 5774 5774 5774 5775 5775 5775 5774 5774 5775 5775 5775 5775 5775 5775 5776 5776 5776 5776 5776 5776 5777 5777 5778 5778 5778 5778 5778 5777 5777 5777 5778 5778 5778 5779 5780 5781 5780 5780 5780 5779 5778 5778 5777 5776 5776 5776
5768 5768 5768 5769 5769 5768 5769 5770 5770 5770 5770 5771 5771 5772 5772 5772 5772 5772 5772 5772 5772 5772 5773 5772 5772 5773 5773 5773 5773 5773 5773 5774 5774 5774 5775 5775 5775 5775 5775 5775 5776 5776 5777 5776 5775 5775 5776 5775 5776 5776 5777 5777 5778 5778 5778 5777 5777 5776 5776 5775 5775 5774 5774
5766 5767 5767 5767 5767 5767 5767 5768 5769 5769 5769 5769 5770 5770 5771 5770 5770 5770 5770 5770 5770 5770 5771 5770 5771 5771 5771 5771 5771 5771 5772 5772 5772 5772 5773 5773 5773 5774 5773 5773 5774 5774 5775 5775 5774 5774 5774 5774 5774 5775 5775 5775 5775 5775 5775 5774 5774 5774 5774 5773 5773 5772 5772
5765 5766 5766 5765 5765 5765 5766 5766 5767 5767 5767 5767 5768 5768 5769 5769 5768 5768 5768 5768 5768 5769 5769 5769 5769 5769 5769 5769 5769 5769 5770 5770 5770 5771 5771 5771 5772 5772 5772 5772 5772 5772 5772 5772 5772 5772 5773 5773 5772 5773 5773 5773 5773 5773 5772 5772 5772 5771 5771 5771 5771 5770 5770
5764 5764 5764 5764 5763 5763 5764 5764 5765 5765 5765 5765 5766 5766 5767 5767 5767 5767 5767 5767 5767 5767 5768 5768 5768 5768 5768 5768 5768 5768 5768 5768 5768 5768 5769 5769 5769 5770 5770 5770 5770 5770 5770 5770 5771 5770 5770 5771 5771 5771 5771 5771 5771 5770 5770 5770 5770 5769 5769 5769 5769 5768 5768
5762 5763 5763 5762 5762 5762 5762 5762 5762 5763 5763 5763 5764 5765 5765 5765 5765 5765 5765 5765 5766 5766 5766 5766 5766 5766 5766 5766 5766 5766 5766 5766 5766 5767 5767 5767 5767 5767 5768 5768 5768 5768 5768 5769 5769 5769 5768 5769 5769 5769 5769 5768 5768 5768 5768 5768 5768 5767 5767 5767 5767 5766 5766
5761 5761 5761 5760 5760 5761 5761 5761 5761 5761 5761 5762 5763 5763 5763 5764 5764 5764 5764 5764 5764 5764 5765 5765 5765 5765 5765 5765 5765 5765 5765 5765 5765 5765 5765 5765 5765 5765 5766 5766 5766 5766 5767 5767 5767 5767 5766 5766 5766 5766 5766 5766 5766 5766 5766 5766 5766 5766 5765 5765 5765 5764 5764
5758 5758 5758 5758 5758 5759 5759 5759 5759 5759 5760 5760 5761 5761 5762 5762 5762 5762 5762 5762 5763 5763 5763 5763 5763 5763 5763 5763 5763 5763 5763 5763 5763 5763 5764 5764 5764 5764 5764 5764 5764 5764 5764 5764 5764 5765 5764 5764 5764 5764 5764 5764 5764 5764 5764 5764 5764 5763 5763 5763 5763 5762 5762
5755 5756 5756 5756 5757 5757 5757 5757 5757 5758 5758 5759 5759 5760 5760 5760 5761 5761 5761 5761 5761 5761 5762 5762 5762 5762 5762 5762 5762 5762 5762 5762 5762 5762 5762 5762 5762 5762 5762 5762 5762 5762 5762 5762 5762 5762 5762 5762 5762 5762 5762 5762 5762 5762 5762 5762 5761 5761 5761 5761 5761 5760 5760
5753 5754 5754 5754 5755 5755 5755 5755 5756 5756 5757 5757 5757 5758 5758 5759 5759 5759 5760 5760 5760 5760 5760 5760 5760 5760 5760 5760 5760 5760 5760 5760 5760 5760 5760 5760 5760 5760 5760 5760 5760 5760 5760 5760 5760 5760 5760 5760 5760 5760 5760 5760 5759 5759 5759 5759 5759 5759 5759 5759 5759 5758 5758
5751 5752 5752 5752 5752 5752 5753 5753 5754 5755 5755 5755 5755 5756 5756 5757 5757 5758 5758 5758 5758 5758 5758 5758 5758 5758 5758 5758 5758 5758 5758 5758 5758 5758 5758 5758 5758 5758 5758 5758 5758 5758 5758 5758 5758 5758 5758 5758 5758 5758 5758 5757 5757 5757 5757 5757 5757 5757 5757 5757 5756 5756 5756
5749 5749 5750 5750 5750 5750 5751 5751 5752 5753 5753 5753 5753 5753 5754 5754 5755 5756 5756 5756 5756 5756 5756 5756 5756 5756 5756 5756 5756 5756 5756 5756 5756 5756 5756 5756 5756 5756 5756 5756 5756 5756 5756 5756 5756 5756 5756 5756 5756 5756 5756 5755 5755 5755 5755 5755 5755 5755 5755 5755 5754 5754 5754
5746 5746 5747 5748 5749 5749 5750 5750 5750 5750 5750 5751 5751 5751 5752 5752 5753 5753 5753 5754 5754 5753 5753 5753 5753 5753 5754 5754 5754 5754 5754 5754 5754 5754 5754 5754 5754 5754 5754 5754 5754 5754 5754 5754 5754 5754 5754 5754 5754 5754 5754 5754 5753 5753 5753 5753 5753 5753 5753 5752 5752 5752 5752
5743 5744 5745 5746 5747 5748 5748 5749 5749 5749 5749 5749 5749 5749 5750 5750 5750 5751 5751 5751 5751 5751 5751 5751 5751 5751 5751 5751 5752 5752 5752 5752 5752 5752 5752 5752 5752 5752 5752 5752 5752 5752 5752 5752 5752 5752 5752 5751 5751 5751 5751 5752 5752 5751 5751 5751 5751 5751 5750 5750 5750 5750 5750
5741 5742 5743 5744 5745 5746 5746 5747 5747 5747 5747 5747 5747 5747 5748 5748 5748 5748 5748 5748 5748 5748 5748 5748 5748 5748 5749 5749 5749 5749 5750 5749 5749 5750 5749 5750 5750 5749 5749 5749 5749 5749 5749 5750 5750 5749 5749 5749 5749 5749 5749 5749 5749 5749 5749 5749 5749 5749 5748 5748 5748 5748 5748
5739 5740 5741 5742 5743 5743 5744 5744 5745 5745 5745 5746 5746 5746 5746 5746 5746 5746 5746 5745 5745 5745 5745 5745 5745 5746 5746 5747 5747 5747 5747 5747 5747 5747 5747 5747 5747 5747 5747 5747 5747 5747 5747 5747 5747 5747 5747 5747 5747 5747 5747 5747 5746 5746 5746 5746 5746 5746 5746 5746 5746 5745 5745
5737 5738 5738 5739 5740 5741 5741 5742 5742 5743 5743 5743 5744 5744 5744 5744 5743 5743 5743 5743 5743 5743 5743 5743 5743 5743 5744 5744 5745 5745 5745 5744 5744 5744 5744 5744 5744 5744 5744 5744 5744 5745 5745 5745 5744 5744 5744 5744 5744 5744 5744 5744 5744 5743 5743 5743 5743 5743 5743 5743 5743 5743 5743
5735 5735 5736 5736 5737 5738 5739 5739 5740 5740 5740 5741 5741 5741 5741 5741 5741 5740 5740 5740 5740 5740 5740 5740 5740 5741 5741 5742 5742 5742 5742 5742 5742 5741 5741 5741 5741 5741 5741 5741 5741 5741 5742 5742 5742 5742 5742 5741 5741 5741 5741 5741 5741 5740 5740 5740 5740 5740 5740 5740 5740 5740 5740
5732 5733 5733 5733 5734 5735 5735 5736 5737 5737 5738 5738 5738 5738 5738 5738 5738 5737 5737 5737 5737 5737 5737 5738 5738 5738 5738 5739 5739 5739 5739 5739 5739 5739 5739 5738 5738 5738 5737 5737 5737 5738 5738 5738 5738 5738 5738 5738 5738 5738 5738 5738 5738 5738 5737 5737 5736 5736 5736 5736 5736 5736 5736
5730 5730 5731 5731 5732 5732 5732 5733 5734 5735 5736 5736 5735 5735 5735 5735 5735 5734 5734 5735 5735 5735 5735 5734 5734 5734 5734 5735 5736 5737 5737 5737 5736 5736 5736 5736 5734 5733 5733 5733 5733 5734 5734 5734 5735 5735 5734 5735 5735 5735 5735 5735 5735 5735 5734 5734 5733 5733 5732 5732 5732 5731 5732
5728 5728 5729 5729 5729 5729 5730 5731 5732 5733 5733 5732 5732 5731 5731 5731 5731 5731 5731 5732 5733 5733 5732 5730 5729 5729 5730 5731 5732 5733 5734 5734 5734 5733 5733 5733 5731 5729 5728 5729 5729 5729 5730 5730 5731 5731 5731 5731 5731 5732 5732 5732 5732 5731 5731 5731 5730 5729 5729 5728 5727 5727 5727
5725 5726 5726 5727 5727 5727 5727 5728 5729 5730 5730 5729 5727 5726 5726 5726 5727 5727 5727 5728 5730 5729 5726 5724 5723 5725 5726 5728 5729 5730 5731 5731 5730 5730 5729 5728 5727 5725 5724 5724 5724 5724 5725 5726 5726 5727 5727 5727 5728 5728 5727 5727 5727 5727 5727 5726 5725 5725 5725 5724 5723 5722 5722
5721 5722 5722 5723 5723 5724 5724 5724 5725 5725 5725 5724 5723 5722 5721 5720 5721 5722 5723 5724 5726 5726 5722 5719 5719 5721 5722 5723 5724 5725 5727 5727 5726 5725 5725 5723 5722 5721 5720 5720 5720 5720 5720 5721 5722 5722 5723 5723 5723 5723 5723 5722 5722 5722 5722 5721 5720 5720 5719 5719 5718 5718 5717
5716 5716 5717 5717 5718 5719 5719 5720 5720 5720 5720 5719 5718 5718 5717 5715 5715 5716 5718 5718 5720 5720 5719 5717 5717 5717 5718 5718 5718 5720 5722 5722 5721 5721 5720 5719 5717 5717 5716 5716 5717 5717 5716 5717 5718 5718 5718 5718 5718 5718 5718 5718 5717 5717 5717 5716 5715 5715 5714 5713 5713 5712 5711
5710 5710 5711 5711 5712 5713 5714 5714 5715 5715 5715 5715 5714 5713 5713 5712 5710 5711 5712 5712 5713 5714 5714 5714 5713 5713 5713 5713 5714 5715 5716 5716 5716 5716 5715 5713 5711 5711 5711 5712 5713 5713 5712 5713 5713 5713 5713 5713 5713 5713 5713 5713 5713 5712 5712 5711 5710 5710 5709 5709 5708 5707 5706
5704 5704 5705 5705 5705 5706 5707 5708 5709 5709 5709 5709 5709 5709 5708 5707 5706 5706 5706 5706 5707 5708 5709 5708 5707 5708 5708 5708 5708 5709 5709 5710 5711 5709 5707 5707 5706 5706 5707 5707 5707 5708 5708 5708 5708 5708 5708 5708 5707 5708 5708 5708 5707 5707 5706 5706 5705 5705 5704 5704 5703 5702 5701
5698 5698 5698 5698 5698 5699 5700 5701 5701 5702 5702 5702 5702 5702 5702 5702 5702 5701 5701 5701 5701 5702 5703 5702 5702 5702 5702 5701 5701 5702 5703 5704 5704 5703 5702 5702 5702 5701 5702 5702 5702 5702 5702 5702 5702 5702 5702 5702 5702 5702 5702 5702 5702 5702 5701 5701 5700 5700 5699 5699 5698 5697 5696
5691 5691 5692 5691 5692 5692 5693 5694 5694 5694 5695 5695 5695 5695 5696 5696 5696 5696 5696 5696 5696 5696 5697 5697 5697 5697 5697 5696 5695 5696 5697 5698 5698 5698 5697 5697 5697 5697 5697 5697 5697 5697 5697 5697 5696 5696 5696 5697 5697 5697 5697 5696 5696 5696 5696 5696 5695 5695 5694 5693 5692 5691 5690
5684 5685 5685 5685 5685 5686 5687 5687 5687 5688 5688 5688 5689 5689 5689 5690 5690 5690 5690 5690 5690 5691 5691 5692 5692 5692 5692 5692 5692 5692 5692 5692 5692 5692 5692 5692 5692 5692 5692 5692 5692 5692 5692 5691 5691 5691 5691 5691 5691 5691 5691 5691 5690 5691 5691 5690 5689 5689 5688 5687 5686 5686 5684
5678 5678 5678 5678 5678 5679 5679 5679 5680 5681 5682 5681 5682 5682 5683 5683 5683 5684 5684 5683 5683 5684 5685 5685 5686 5687 5687 5687 5687 5687 5687 5686 5687 5687 5687 5687 5688 5687 5687 5687 5686 5686 5686 5686 5686 5686 5686 5686 5685 5685 5685 5685 5684 5685 5686 5685 5683 5683 5682 5681 5680 5679 5678
5671 5671 5670 5670 5671 5671 5671 5672 5672 5674 5675 5674 5674 5675 5675 5675 5676 5677 5677 5676 5676 5677 5678 5678 5678 5679 5680 5681 5681 5681 5680 5679 5680 5681 5680 5681 5681 5681 5681 5681 5681 5681 5681 5680 5680 5680 5680 5680 5680 5679 5679 5679 5678 5678 5679 5679 5678 5677 5676 5675 5674 5673 5672
5662 5662 5662 5662 5662 5663 5664 5664 5664 5666 5667 5667 5667 5667 5667 5668 5668 5669 5670 5670 5669 5670 5671 5671 5671 5672 5673 5674 5674 5675 5673 5672 5673 5674 5673 5673 5674 5675 5676 5675 5675 5675 5675 5675 5675 5675 5674 5674 5674 5673 5673 5673 5673 5672 5672 5672 5672 5671 5670 5669 5667 5666 5665
5654 5654 5654 5653 5654 5654 5655 5655 5656 5657 5657 5658 5658 5659 5659 5660 5660 5661 5661 5661 5661 5662 5663 5664 5664 5665 5666 5666 5667 5668 5667 5666 5666 5667 5667 5666 5666 5669 5671 5670 5668 5669 5670 5669 5669 5669 5669 5669 5668 5668 5667 5667 5667 5666 5666 5665 5666 5665 5664 5662 5661 5660 5658
5645 5646 5645 5645 5645 5645 5646 5646 5646 5647 5648 5648 5649 5649 5650 5651 5651 5651 5652 5652 5653 5654 5655 5655 5656 5657 5658 5658 5659 5660 5660 5660 5659 5660 5661 5660 5659 5662 5665 5663 5662 5663 5664 5664 5664 5664 5663 5663 5663 5662 5662 5661 5661 5661 5660 5659 5659 5659 5657 5656 5654 5653 5652
5636 5636 5636 5637 5636 5636 5636 5636 5636 5637 5638 5639 5639 5640 5642 5642 5642 5641 5642 5643 5644 5644 5645 5646 5647 5648 5649 5649 5651 5651 5652 5652 5651 5652 5653 5653 5652 5655 5656 5655 5655 5657 5657 5658 5658 5658 5657 5657 5657 5656 5656 5655 5655 5655 5654 5654 5653 5652 5651 5649 5648 5647 5645